Powrót do katalogu

SITRO-AIS-28

AktywnyŁącznośćPO
NORAD 59071·PAYLOAD·🇷🇺 Russia
Ta nazwa satelity nie została jeszcze potwierdzona przez oficjalne źródła.

Wystrzelony Feb 29, 2024 z Vostochny Cosmodrome

Loading…

Następne Przeloty (najbliższe 24 godziny)

TLE

ŚwieżeSource: Space-Track

Epoka: Sep 14, 2026, 12:57 UTC

1 59071U 24039U   26257.53964799  .00002875  00000-0  22110-3 0  9995
2 59071  95.3822 296.7135 0143128  15.2616 345.2858 14.94288365138081

Śledź SITRO-AIS-28 w czasie rzeczywistym z AllMySat

Download on the App Store